Location: Newark
(11.4947°N, 0.1467°E)
Time: 16:28:20
(UTC+00:00)

Envisat - Visible Passes

Search period start: 12 November 2019 00:00
Search period end: 22 November 2019 00:00
Orbit: 764 x 766 km, 98.1° (Epoch: 12 November)

Date Brightness Start Highest point End Pass type
(mag) Time Alt. Az. Time Alt. Az. Time Alt. Az.
12 Nov 6.3 05:33:09 10° ENE 05:35:50 14° E 05:38:29 10° SE visible
12 Nov 3.0 18:08:12 10° SSE 18:13:12 61° ENE 18:18:11 10° N visible
13 Nov 5.4 19:11:24 10° SSW 19:15:21 23° W 19:19:19 10° NW visible
14 Nov 3.4 18:33:36 10° S 18:38:38 65° WSW 18:43:39 10° NNW visible
15 Nov 6.7 05:24:19 10° E 05:24:33 10° E 05:24:48 10° ESE visible
15 Nov 3.3 17:57:10 10° SSE 18:01:58 44° ENE 18:06:46 10° N visible
15 Nov 6.3 19:39:46 10° WSW 19:40:51 11° W 19:41:56 10° W visible
16 Nov 4.9 18:59:39 10° SSW 19:04:05 31° W 19:08:32 10° NW visible
17 Nov 3.0 18:22:18 10° SSE 18:27:23 88° WSW 18:32:28 10° NNW visible
18 Nov 3.7 17:46:15 10° SE 17:50:45 33° ENE 17:55:14 10° NNE visible
18 Nov 5.9 19:26:45 10° SW 19:29:35 15° W 19:32:25 10° WNW visible
19 Nov 4.3 18:48:03 10° S 18:52:49 42° W 18:57:36 10° NNW visible
20 Nov 6.2 05:35:41 10° ENE 05:38:46 16° E 05:41:52 10° SE visible
20 Nov 2.9 18:11:06 10° SSE 18:16:09 68° ENE 18:21:10 10° N visible
21 Nov 5.5 19:14:36 10° SSW 19:18:18 20° W 19:22:01 10° NW visible
